TimeGMT,TemperatureF,Dew PointF,Humidity,Sea Level PressureIn,VisibilityMPH,Wind Direction,Wind SpeedMPH,Gust SpeedMPH,PrecipitationIn,Events,Conditions,WindDirDegrees,DateUTC
12:00 AM,44,40,79,30.28,11,South,6.9,,,,,190,2014-03-06 00:00:00
12:20 AM,42.8,39.2,87,30.27,-9999.0,South,5.8,-,N/A,,Clear,180,2014-03-06 00:20:00
12:50 AM,42.8,39.2,87,30.27,-9999.0,South,5.8,-,N/A,,Clear,180,2014-03-06 00:50:00
1:00 AM,42,38,81,30.27,10,South,5.8,,,,,170,2014-03-06 01:00:00
1:20 AM,42.8,39.2,87,30.27,6.2,South,6.9,-,N/A,,Unknown,190,2014-03-06 01:20:00
1:50 AM,41.0,39.2,93,30.27,6.2,South,6.9,-,N/A,,Unknown,180,2014-03-06 01:50:00
2:00 AM,43,38,78,30.27,11,South,8.1,,,,Scattered Clouds,180,2014-03-06 02:00:00
2:20 AM,41.0,39.2,93,30.27,6.2,South,6.9,-,N/A,,Unknown,180,2014-03-06 02:20:00
2:50 AM,41.0,39.2,93,30.27,5.6,South,6.9,-,N/A,,Unknown,190,2014-03-06 02:50:00
3:00 AM,42,39,85,30.27,9,South,8.1,,,,Scattered Clouds,180,2014-03-06 03:00:00
3:20 AM,41.0,39.2,93,30.27,5.6,South,6.9,-,N/A,,Unknown,190,2014-03-06 03:20:00
3:50 AM,41.0,39.2,93,30.24,5.0,South,3.5,-,N/A,,Unknown,180,2014-03-06 03:50:00
4:00 AM,42,39,85,30.27,7,South,6.9,,,,,180,2014-03-06 04:00:00
4:20 AM,41.0,39.2,93,30.24,5.0,South,5.8,-,N/A,,Unknown,190,2014-03-06 04:20:00
4:50 AM,41.0,39.2,93,30.24,5.0,SSW,4.6,-,N/A,,Unknown,200,2014-03-06 04:50:00
5:00 AM,41,39,89,30.27,7,South,6.9,,,,,180,2014-03-06 05:00:00
5:20 AM,41.0,39.2,93,30.24,5.0,SSW,5.8,-,N/A,,Unknown,200,2014-03-06 05:20:00
5:50 AM,41.0,39.2,93,30.27,5.0,South,6.9,-,N/A,,Unknown,180,2014-03-06 05:50:00
6:00 AM,42,39,87,30.27,8,South,8.1,,,,,190,2014-03-06 06:00:00
6:20 AM,41.0,39.2,93,30.27,4.3,South,6.9,-,N/A,,Unknown,180,2014-03-06 06:20:00
6:50 AM,41.0,39.2,93,30.27,5.6,Variable,6.9,-,N/A,,Unknown,0,2014-03-06 06:50:00
7:00 AM,43,40,87,30.28,10,South,6.9,,,,Mostly Cloudy,170,2014-03-06 07:00:00
7:20 AM,42.8,41.0,93,30.27,5.6,South,6.9,-,N/A,,Unknown,190,2014-03-06 07:20:00
7:50 AM,44.6,41.0,87,30.27,5.6,SSW,6.9,-,N/A,,Unknown,210,2014-03-06 07:50:00
8:00 AM,45,41,82,30.28,11,SSW,8.1,,,,Partly Cloudy,200,2014-03-06 08:00:00
8:20 AM,46.4,42.8,87,30.27,-9999.0,SSW,8.1,-,N/A,,Clear,200,2014-03-06 08:20:00
8:50 AM,46.4,42.8,87,30.27,-9999.0,SSW,6.9,-,N/A,,Clear,210,2014-03-06 08:50:00
9:00 AM,48,43,77,30.29,11,SSW,10.4,,,,,210,2014-03-06 09:00:00
9:20 AM,48.2,42.8,82,30.27,-9999.0,SSW,10.4,-,N/A,,Clear,210,2014-03-06 09:20:00
9:50 AM,50.0,42.8,76,30.30,6.2,WSW,13.8,-,N/A,,Scattered Clouds,240,2014-03-06 09:50:00
10:00 AM,49,42,68,30.30,13,SW,12.7,,,,Scattered Clouds,220,2014-03-06 10:00:00
10:20 AM,50.0,42.8,76,30.30,6.2,WSW,13.8,-,N/A,,Scattered Clouds,240,2014-03-06 10:20:00
10:50 AM,50.0,42.8,76,30.30,6.2,SW,13.8,-,N/A,,Scattered Clouds,230,2014-03-06 10:50:00
11:00 AM,51,41,60,30.29,17,SW,15.0,,,,Scattered Clouds,220,2014-03-06 11:00:00
11:20 AM,51.8,42.8,71,30.27,6.2,SW,15.0,-,N/A,,Scattered Clouds,220,2014-03-06 11:20:00
11:50 AM,53.6,42.8,67,30.27,6.2,SW,16.1,-,N/A,,Scattered Clouds,220,2014-03-06 11:50:00
12:00 PM,54,41,50,30.27,19,SW,15.0,,,,Scattered Clouds,230,2014-03-06 12:00:00
12:20 PM,55.4,44.6,67,30.27,6.2,SW,13.8,-,N/A,,Scattered Clouds,220,2014-03-06 12:20:00
12:50 PM,55.4,42.8,63,30.24,6.2,SW,16.1,-,N/A,,Scattered Clouds,220,2014-03-06 12:50:00
1:00 PM,56,43,51,30.26,19,SW,15.0,,,,,220,2014-03-06 13:00:00
1:20 PM,55.4,44.6,67,30.24,6.2,SW,15.0,26.5,N/A,,Scattered Clouds,230,2014-03-06 13:20:00
1:50 PM,55.4,42.8,63,30.24,6.2,SW,16.1,-,N/A,,Scattered Clouds,220,2014-03-06 13:50:00
2:00 PM,54,42,54,30.24,19,SW,18.4,,,,Partly Cloudy,220,2014-03-06 14:00:00
2:20 PM,55.4,42.8,63,30.24,6.2,SW,17.3,-,N/A,,Scattered Clouds,230,2014-03-06 14:20:00
2:50 PM,55.4,42.8,63,30.21,6.2,SW,16.1,-,N/A,,Scattered Clouds,230,2014-03-06 14:50:00
3:00 PM,55,42,50,30.23,19,SW,17.3,,,,Scattered Clouds,220,2014-03-06 15:00:00
3:20 PM,55.4,42.8,63,30.21,6.2,SSW,16.1,-,N/A,,Partly Cloudy,210,2014-03-06 15:20:00
3:50 PM,53.6,41.0,62,30.21,6.2,SW,15.0,-,N/A,,Partly Cloudy,230,2014-03-06 15:50:00
4:00 PM,53,40,52,30.22,19,SW,19.6,,,,,220,2014-03-06 16:00:00
4:20 PM,53.6,42.8,67,30.21,6.2,SW,13.8,-,N/A,,Partly Cloudy,220,2014-03-06 16:20:00
4:50 PM,51.8,42.8,71,30.21,6.2,SW,13.8,-,N/A,,Partly Cloudy,220,2014-03-06 16:50:00
5:00 PM,52,41,55,30.22,22,SSW,16.1,,,,Scattered Clouds,210,2014-03-06 17:00:00
5:20 PM,51.8,42.8,71,30.21,6.2,SSW,12.7,-,N/A,,Partly Cloudy,210,2014-03-06 17:20:00
5:50 PM,51.8,42.8,71,30.21,6.2,SSW,12.7,-,N/A,,Partly Cloudy,210,2014-03-06 17:50:00
6:00 PM,51,41,59,30.22,19,SSW,12.7,,,,Partly Cloudy,200,2014-03-06 18:00:00
6:20 PM,50.0,42.8,76,30.21,-9999.0,SSW,12.7,-,N/A,,Clear,210,2014-03-06 18:20:00
6:50 PM,50.0,42.8,76,30.21,-9999.0,SSW,12.7,-,N/A,,Clear,210,2014-03-06 18:50:00
7:00 PM,50,41,63,30.23,17,SSW,12.7,,,,Scattered Clouds,210,2014-03-06 19:00:00
7:20 PM,50.0,42.8,76,30.21,6.2,SSW,11.5,-,N/A,,Partly Cloudy,210,2014-03-06 19:20:00
7:50 PM,48.2,42.8,82,30.21,-9999.0,SSW,11.5,-,N/A,,Clear,210,2014-03-06 19:50:00
8:00 PM,49,41,67,30.23,19,SSW,12.7,,,,Partly Cloudy,200,2014-03-06 20:00:00
8:20 PM,48.2,42.8,82,30.21,-9999.0,SSW,11.5,-,N/A,,Clear,200,2014-03-06 20:20:00
8:50 PM,48.2,42.8,82,30.21,-9999.0,SSW,9.2,-,N/A,,Clear,200,2014-03-06 20:50:00
9:00 PM,48,41,70,30.22,18,South,9.2,,,,Partly Cloudy,190,2014-03-06 21:00:00
9:20 PM,48.2,42.8,82,30.21,-9999.0,SSW,10.4,-,N/A,,Clear,200,2014-03-06 21:20:00
9:50 PM,46.4,42.8,87,30.18,6.2,South,12.7,-,N/A,,Partly Cloudy,190,2014-03-06 21:50:00
10:00 PM,47,42,75,30.20,17,South,10.4,,,,Scattered Clouds,180,2014-03-06 22:00:00
10:20 PM,46.4,42.8,87,30.18,-9999.0,South,10.4,-,N/A,,Clear,190,2014-03-06 22:20:00
10:50 PM,46.4,42.8,87,30.18,-9999.0,SSW,8.1,-,N/A,,Clear,200,2014-03-06 22:50:00
11:00 PM,47,42,76,30.19,15,South,9.2,,,,Mostly Cloudy,190,2014-03-06 23:00:00
11:20 PM,46.4,42.8,87,30.18,-9999.0,SSW,5.8,-,N/A,,Clear,210,2014-03-06 23:20:00
11:50 PM,46.4,42.8,87,30.18,-9999.0,SSW,5.8,-,N/A,,Clear,210,2014-03-06 23:50:00